Temp
19 19 19 19 15 11 13 15 17 19 21 20 20 19 18 14 18 17 14 14 15 15 15 14 14 14 14 16 17 17 17 17 17 17 17 17 17 17 17 17 17 17 17 17 17 17 17 17 17
19 19 19 18 13 13 14 15 18 20 21 19 19 17 16 15 13 13 13 14 15 15 14 13 14 14 14 16 17 17 17 17 17 17 17 17 17 17 18 18 18 18 17 17 17 17 17 17 17
19 19 19 13 11 13 14 17 19 20 22 20 18 17 15 13 12 13 14 14 14 14 13 13 13 14 15 17 17 17 17 17 17 17 17 18 18 18 18 18 18 18 17 17 17 17 17 17 17
19 19 18 14 14 14 16 18 19 20 22 20 18 13 15 14 13 13 13 14 14 14 14 13 13 13 16 16 16 16 16 16 17 17 18 18 18 18 18 17 17 17 17 17 17 17 17 16 16
19 18 14 13 14 15 17 19 20 20 21 20 18 13 13 13 13 13 14 14 14 13 13 13 13 14 15 15 15 16 16 17 17 17 17 17 17 17 17 17 17 17 17 16 16 16 16 16 16
19 16 13 13 15 17 17 21 20 20 21 18 17 13 12 13 13 13 14 14 14 14 13 13 14 14 15 15 15 16 16 17 17 17 17 17 16 16 16 16 16 16 16 16 16 15 15 15 15
16 13 13 14 15 16 19 21 20 20 18 17 17 13 11 12 12 14 13 13 14 13 13 13 14 14 14 15 16 16 16 16 16 16 16 16 16 16 16 15 15 15 15 15 15 15 15 15 14
19 14 15 14 17 16 19 21 22 22 19 18 19 13 11 12 12 13 13 13 14 13 13 14 14 14 15 15 16 16 16 16 16 16 16 15 15 15 15 15 15 15 14 14 14 14 14 14 14
19 14 12 15 16 17 21 19 22 20 19 17 17 18 17 13 13 13 13 12 13 13 14 14 14 14 15 15 15 15 15 15 15 15 15 15 15 15 15 15 14 14 14 14 14 14 14 13 13
15 13 16 16 17 18 20 20 21 21 18 17 17 17 17 13 12 12 12 12 12 13 14 14 14 14 14 15 15 15 15 15 15 14 14 14 14 14 14 14 14 14 14 14 14 13 13 13 13
17 15 18 18 20 20 18 18 20 19 17 19 19 16 15 13 12 12 12 13 14 14 14 14 13 14 14 14 15 15 15 15 14 14 14 14 14 13 13 14 14 14 13 13 13 13 12 12 12
17 17 19 19 21 19 17 20 20 20 22 25 23 22 18 14 14 14 14 13 13 13 14 14 13 13 13 14 14 14 15 15 14 14 14 13 13 13 13 13 13 13 12 12 12 12 12 11 11
16 17 19 19 20 20 20 18 19 20 23 23 22 18 18 18 15 13 14 13 13 13 13 13 13 13 13 13 13 13 14 14 14 13 13 13 13 13 13 13 12 12 12 12 11 11 10 10 10
17 17 18 18 18 19 19 19 20 21 22 21 21 19 16 15 15 13 13 14 13 13 14 13 13 12 12 12 12 12 12 12 12 13 13 13 13 12 12 12 12 12 11 11 10 10 9 10 9
17 15 16 16 18 18 20 17 17 22 20 19 18 18 16 16 14 17 18 15 14 13 13 13 12 11 11 12 11 11 12 11 12 12 12 12 12 12 12 11 11 11 10 10 9 9 9 9 9
16 15 15 18 18 18 19 18 18 21 17 15 16 15 15 15 18 16 16 15 14 14 13 12 11 11 11 11 11 10 10 10 11 11 11 11 11 11 11 11 11 10 9 9 9 9 9 9 9
13 14 14 16 17 17 17 17 18 19 17 15 14 14 15 13 13 16 16 15 14 13 13 12 11 11 10 10 10 9 9 10 10 10 11 11 11 11 10 10 10 9 8 8 9 9 9 9 8
14 13 12 14 17 16 15 15 16 18 15 15 15 14 12 12 17 17 16 14 13 13 12 12 11 10 9 9 9 9 9 9 9 10 10 11 10 10 10 9 9 8 8 8 8 9 9 9 8
15 14 13 13 15 15 16 16 16 18 15 15 14 13 13 13 21 15 14 13 13 13 12 11 11 10 9 9 9 8 9 9 9 9 9 10 10 9 9 9 8 8 8 8 8 8 8 7 7
14 14 14 15 16 16 15 16 15 15 17 16 16 14 14 14 13 13 14 14 13 13 11 11 10 10 9 9 9 9 9 9 8 8 9 9 9 9 8 8 8 8 7 8 7 7 7 7 7
14 14 14 15 15 16 15 16 17 16 17 19 18 19 16 15 13 13 13 15 13 13 12 11 10 10 10 9 9 8 8 7 7 8 8 8 8 8 8 7 7 7 7 7 7 7 6 6 6
14 15 15 15 14 14 16 15 18 17 16 16 17 17 16 14 14 13 12 11 13 13 11 11 11 10 9 9 8 9 10 9 9 9 8 8 8 7 7 7 7 7 7 6 6 6 5 5 5
14 16 15 14 14 14 15 15 17 18 17 17 16 18 18 16 15 13 14 15 14 11 10 10 10 11 11 11 10 9 9 9 8 7 7 7 7 7 7 6 6 6 6 6 6 5 4 4 4
15 15 15 14 13 12 15 15 16 15 17 17 16 19 21 17 16 16 15 11 9 8 9 10 10 9 9 8 8 9 9 8 7 7 7 7 7 7 6 6 6 5 5 5 5 4 4 4 3
13 13 11 11 12 12 15 14 16 16 17 17 16 16 19 19 17 13 11 10 9 9 8 10 9 9 8 7 8 8 8 8 8 7 7 7 7 6 6 5 5 5 4 4 4 3 3 2 2
14 13 12 13 12 12 13 13 15 13 12 12 12 12 14 16 16 12 11 10 9 8 7 8 9 9 9 9 8 7 8 7 7 7 7 7 6 6 5 4 4 4 4 3 3 3 2 2 2
13 13 15 13 12 9 10 13 14 12 11 10 9 10 9 11 13 12 9 8 7 6 6 8 10 10 9 9 9 8 7 7 7 6 6 5 5 5 4 4 3 3 3 2 2 2 1 2 1
14 14 12 11 11 12 11 11 11 8 9 9 7 7 9 10 10 10 8 7 6 6 6 9 10 11 11 9 8 7 6 6 6 6 6 5 4 4 4 3 3 3 2 2 2 1 1 1 1
11 12 10 10 9 10 10 9 9 8 8 8 6 7 8 9 8 9 8 7 6 6 8 10 9 9 9 8 7 7 6 6 6 5 5 5 4 3 3 3 2 2 1 2 1 1 1 0 0
9 9 9 10 10 9 9 9 10 9 9 8 7 7 9 8 8 7 7 6 6 7 8 7 9 10 8 8 7 6 6 5 5 4 4 3 3 2 2 2 1 1 1 1 1 0 1 -0 -0
Height
1499 1499 1500 1500 1511 1515 1517 1502 1487 1484 1478 1471 1470 1471 1471 1472 1475 1487 1476 1479 1483 1488 1494 1498 1501 1502 1504 1506 1507 1510 1512 1513 1514 1515 1516 1517 1518 1520 1521 1522 1523 1523 1523 1523 1523 1522 1522 1521 1521
1497 1497 1499 1499 1515 1522 1514 1492 1486 1480 1475 1475 1472 1474 1472 1475 1475 1475 1478 1481 1485 1488 1493 1496 1500 1502 1502 1504 1507 1509 1511 1513 1514 1515 1515 1517 1518 1519 1520 1521 1522 1523 1523 1523 1522 1522 1521 1520 1520
1497 1496 1498 1501 1515 1516 1509 1486 1475 1475 1473 1475 1475 1475 1476 1473 1473 1476 1478 1482 1486 1489 1493 1495 1499 1501 1501 1504 1507 1509 1511 1513 1513 1514 1515 1516 1517 1518 1520 1521 1522 1523 1523 1522 1522 1521 1520 1519 1518
1495 1496 1497 1504 1504 1499 1490 1479 1476 1471 1473 1473 1473 1479 1476 1475 1474 1476 1480 1482 1486 1490 1493 1495 1499 1501 1502 1504 1506 1508 1510 1512 1512 1514 1515 1516 1517 1518 1520 1520 1521 1522 1522 1522 1520 1520 1519 1518 1517
1494 1493 1500 1503 1498 1489 1480 1474 1476 1472 1470 1469 1469 1477 1476 1474 1476 1477 1479 1483 1487 1490 1493 1496 1498 1500 1502 1504 1505 1508 1509 1511 1512 1514 1515 1516 1518 1518 1519 1519 1520 1520 1520 1520 1519 1518 1518 1517 1517
1493 1492 1505 1507 1492 1481 1474 1471 1472 1466 1461 1465 1467 1474 1476 1475 1475 1477 1480 1483 1487 1491 1494 1496 1498 1501 1503 1504 1506 1508 1509 1511 1513 1514 1515 1516 1517 1517 1518 1518 1519 1519 1519 1518 1518 1518 1517 1517 1516
1490 1495 1499 1495 1489 1482 1470 1468 1468 1460 1456 1459 1462 1473 1473 1474 1474 1476 1481 1485 1487 1490 1492 1495 1497 1499 1502 1504 1505 1507 1508 1510 1512 1514 1514 1515 1515 1516 1516 1517 1518 1518 1518 1518 1517 1517 1517 1516 1516
1487 1488 1491 1488 1485 1480 1465 1466 1465 1462 1461 1458 1460 1464 1469 1467 1471 1476 1479 1483 1486 1488 1491 1493 1495 1498 1501 1503 1505 1506 1507 1508 1510 1511 1513 1513 1515 1516 1516 1516 1517 1518 1517 1517 1517 1517 1516 1516 1515
1483 1491 1496 1485 1481 1469 1461 1465 1462 1462 1460 1459 1458 1457 1458 1460 1467 1473 1474 1476 1480 1482 1485 1489 1491 1495 1498 1500 1502 1505 1506 1508 1509 1510 1512 1513 1514 1515 1516 1516 1517 1518 1518 1518 1517 1517 1516 1516 1515
1480 1488 1478 1473 1470 1467 1460 1463 1461 1462 1459 1458 1456 1456 1456 1459 1463 1464 1465 1466 1472 1474 1477 1481 1485 1489 1493 1497 1499 1501 1504 1506 1508 1509 1511 1511 1513 1514 1515 1516 1517 1517 1518 1518 1518 1517 1516 1515 1514
1475 1476 1468 1465 1464 1463 1459 1458 1457 1457 1461 1451 1450 1451 1453 1456 1460 1463 1465 1462 1462 1469 1474 1478 1482 1487 1491 1493 1496 1498 1501 1502 1505 1507 1509 1510 1512 1514 1515 1516 1516 1517 1518 1517 1517 1516 1514 1513 1512
1474 1465 1463 1459 1460 1459 1457 1452 1449 1447 1446 1444 1444 1446 1446 1451 1452 1453 1457 1461 1464 1466 1471 1476 1482 1486 1489 1492 1494 1496 1498 1500 1502 1505 1507 1509 1510 1512 1514 1515 1516 1517 1517 1515 1515 1514 1512 1511 1510
1469 1463 1458 1455 1455 1453 1451 1447 1445 1441 1439 1441 1441 1443 1444 1445 1448 1454 1458 1461 1461 1463 1469 1474 1480 1484 1487 1490 1492 1494 1496 1497 1498 1501 1504 1506 1508 1511 1513 1514 1514 1514 1513 1514 1514 1512 1510 1508 1507
1460 1459 1455 1449 1448 1448 1449 1443 1442 1435 1436 1436 1435 1437 1440 1443 1445 1449 1453 1456 1458 1462 1464 1470 1475 1480 1484 1488 1491 1493 1495 1497 1498 1500 1501 1503 1506 1509 1511 1512 1512 1513 1513 1513 1511 1510 1507 1505 1504
1457 1460 1451 1446 1444 1442 1441 1443 1437 1433 1433 1433 1433 1433 1436 1439 1444 1442 1444 1449 1454 1458 1464 1467 1472 1477 1481 1484 1488 1491 1493 1495 1496 1499 1501 1502 1503 1506 1508 1509 1510 1510 1511 1511 1509 1507 1505 1503 1502
1459 1456 1457 1439 1441 1436 1439 1439 1426 1428 1428 1428 1428 1430 1432 1434 1433 1440 1443 1446 1451 1454 1459 1465 1468 1473 1477 1482 1486 1490 1491 1493 1496 1498 1500 1502 1502 1504 1506 1508 1508 1509 1509 1509 1508 1507 1505 1502 1501
1460 1458 1456 1443 1435 1437 1436 1433 1421 1422 1424 1423 1425 1424 1424 1429 1433 1435 1436 1441 1445 1449 1453 1459 1464 1469 1473 1479 1482 1486 1489 1491 1493 1495 1497 1500 1501 1502 1504 1505 1506 1507 1506 1506 1506 1505 1503 1502 1500
1459 1461 1457 1450 1434 1434 1436 1433 1422 1419 1420 1418 1417 1419 1422 1421 1421 1425 1431 1437 1441 1445 1450 1455 1460 1466 1469 1474 1478 1482 1485 1487 1490 1492 1494 1496 1498 1499 1500 1502 1503 1504 1504 1504 1504 1503 1503 1501 1498
1449 1449 1453 1447 1436 1437 1433 1425 1421 1411 1413 1413 1413 1412 1413 1412 1410 1420 1427 1433 1438 1442 1447 1451 1453 1459 1463 1467 1472 1477 1481 1485 1487 1489 1491 1493 1496 1497 1497 1498 1500 1502 1503 1503 1503 1503 1501 1500 1498
1443 1444 1442 1436 1435 1434 1430 1412 1414 1409 1403 1403 1402 1405 1404 1406 1410 1411 1418 1424 1428 1433 1439 1445 1451 1455 1460 1464 1469 1474 1478 1482 1486 1488 1489 1492 1494 1494 1495 1496 1497 1499 1500 1500 1500 1501 1500 1499 1497
1433 1437 1438 1436 1433 1424 1430 1401 1402 1398 1394 1392 1393 1393 1391 1391 1397 1402 1407 1410 1417 1422 1428 1436 1445 1450 1454 1460 1465 1471 1476 1480 1482 1484 1486 1488 1491 1493 1494 1495 1496 1497 1497 1498 1498 1498 1498 1498 1496
1427 1428 1428 1432 1437 1438 1424 1414 1382 1393 1388 1386 1385 1385 1385 1387 1391 1396 1401 1407 1408 1414 1422 1429 1436 1445 1450 1454 1459 1464 1466 1471 1478 1482 1483 1485 1487 1491 1492 1493 1494 1494 1494 1494 1495 1496 1495 1494 1494
1412 1420 1425 1427 1432 1433 1420 1429 1354 1379 1384 1384 1379 1378 1376 1377 1381 1385 1389 1391 1399 1408 1415 1426 1436 1436 1436 1443 1451 1458 1466 1469 1474 1479 1482 1483 1485 1487 1490 1491 1493 1493 1493 1491 1493 1492 1492 1493 1491
1413 1417 1420 1421 1428 1436 1403 1417 1379 1386 1376 1375 1372 1371 1369 1369 1370 1370 1377 1391 1400 1406 1412 1421 1429 1434 1440 1446 1450 1453 1459 1464 1471 1475 1479 1482 1483 1484 1486 1488 1491 1491 1491 1491 1490 1490 1489 1491 1491
1413 1420 1435 1436 1429 1420 1397 1411 1372 1368 1370 1372 1372 1368 1367 1366 1367 1371 1375 1381 1387 1396 1404 1410 1418 1428 1437 1446 1450 1457 1462 1465 1467 1471 1477 1479 1482 1481 1484 1486 1487 1490 1489 1489 1488 1490 1489 1492 1490
1395 1404 1416 1412 1417 1409 1399 1400 1382 1376 1373 1372 1372 1370 1365 1365 1367 1369 1370 1375 1380 1386 1398 1407 1415 1423 1429 1437 1445 1452 1454 1461 1465 1468 1472 1477 1479 1479 1482 1484 1485 1487 1486 1488 1487 1489 1490 1489 1489
1388 1395 1377 1400 1401 1422 1404 1382 1379 1378 1379 1376 1373 1370 1369 1365 1363 1366 1371 1376 1379 1381 1389 1402 1415 1425 1431 1435 1438 1445 1451 1452 1457 1464 1469 1476 1476 1478 1479 1482 1483 1483 1484 1486 1487 1489 1489 1489 1488
1373 1375 1396 1400 1400 1395 1394 1390 1387 1393 1388 1386 1378 1376 1376 1374 1376 1377 1376 1380 1384 1388 1392 1404 1412 1413 1422 1429 1434 1444 1446 1450 1457 1460 1463 1468 1472 1475 1477 1479 1480 1480 1481 1483 1485 1486 1487 1488 1488
1378 1378 1388 1389 1395 1390 1389 1393 1391 1394 1393 1389 1387 1383 1387 1381 1382 1382 1384 1384 1388 1390 1396 1400 1404 1413 1415 1420 1428 1435 1441 1446 1449 1455 1459 1462 1467 1472 1473 1475 1477 1477 1479 1481 1483 1484 1486 1488 1486
1371 1378 1385 1385 1385 1386 1383 1384 1383 1389 1393 1389 1386 1387 1388 1384 1384 1388 1389 1393 1394 1393 1393 1400 1404 1399 1405 1416 1423 1430 1435 1441 1443 1449 1452 1461 1465 1469 1473 1471 1475 1475 1476 1480 1481 1482 1483 1487 1485
Wind_Speed
5 6 1 2 3 4 3 7 3 8 4 2 4 2 2 6 4 3 19 24 28 28 25 23 22 20 18 23 21 20 17 15 14 13 12 10 9 8 6 4 2 1 1 3 4 5 7 7 8
6 5 4 2 4 0 5 5 7 6 2 7 8 5 5 1 3 9 20 23 28 27 26 23 23 21 20 21 20 18 16 14 13 12 11 9 8 7 5 4 2 0 2 4 6 7 8 9 10
6 5 3 4 3 6 5 5 7 2 3 7 3 3 2 4 7 25 23 26 27 27 26 23 23 23 23 21 18 17 15 14 13 12 11 10 9 7 5 3 1 2 4 6 7 9 11 12 12
4 6 2 2 9 6 6 8 6 15 11 15 7 2 2 5 20 20 28 27 27 27 26 24 23 22 19 18 17 17 16 14 14 13 12 10 8 6 4 2 2 4 6 8 9 10 11 12 12
7 2 1 3 7 4 8 19 16 15 7 12 13 5 4 14 12 23 30 26 26 26 25 23 24 21 19 18 17 16 15 15 14 13 11 9 7 5 3 2 3 5 7 8 8 9 10 11 12
3 2 1 5 7 5 7 20 19 20 22 10 9 11 9 14 16 27 27 25 25 25 24 22 21 19 18 17 17 16 16 15 14 12 10 9 7 5 3 3 4 4 5 6 8 9 10 11 11
5 3 5 5 5 8 7 7 6 12 8 9 17 6 4 18 22 27 24 23 25 25 24 23 22 20 19 18 17 17 16 15 13 11 10 9 7 6 5 4 3 3 4 5 6 7 8 10 11
6 4 4 5 4 12 6 7 19 13 2 17 15 7 8 28 29 29 26 25 24 25 24 24 24 22 21 20 19 18 17 15 14 13 11 9 8 7 5 4 3 3 4 5 6 8 9 10 11
8 1 5 6 5 10 21 5 10 6 11 3 8 7 8 33 35 33 32 31 30 29 28 27 25 24 23 22 21 19 17 16 14 13 11 9 8 8 6 5 3 3 3 4 6 8 10 11 12
5 4 8 7 5 9 20 8 7 3 3 4 5 10 12 38 41 41 41 40 37 36 35 31 29 27 26 24 23 21 19 16 14 12 12 11 9 8 5 4 3 3 4 5 6 7 9 9 10
6 6 4 11 25 29 22 13 17 9 6 14 20 22 28 41 42 41 40 38 39 36 36 33 30 28 27 26 25 23 21 18 15 13 12 10 9 6 4 4 4 4 4 6 7 8 8 9 10
5 10 15 11 22 15 5 16 6 19 21 22 25 26 35 42 43 43 41 39 38 38 36 33 31 29 27 26 25 23 21 18 16 14 13 11 9 6 5 5 5 5 4 5 7 8 9 9 9
6 6 19 19 16 20 25 12 12 16 28 17 22 29 38 43 43 42 39 37 38 38 36 35 33 31 29 28 25 23 21 20 19 17 15 13 10 8 6 6 6 4 5 6 7 7 7 7 7
10 16 22 25 15 13 9 14 3 9 12 18 24 35 40 45 45 43 42 41 41 38 38 37 35 32 30 28 25 23 21 19 17 17 16 13 10 9 8 7 4 5 6 6 6 7 7 9 9
15 7 11 9 9 7 9 7 10 23 18 23 28 35 41 44 44 43 41 44 42 41 38 38 35 33 31 29 26 24 21 19 18 17 16 14 12 10 8 5 4 5 6 6 7 8 9 8 8
9 4 8 2 5 8 11 11 13 15 24 27 32 36 40 44 45 43 43 43 43 42 41 38 37 35 32 30 26 24 20 18 17 17 15 14 13 10 6 4 3 5 5 5 6 5 6 7 7
5 11 8 11 8 6 8 7 12 15 28 25 32 38 42 43 44 45 45 44 45 44 42 41 39 36 34 31 27 24 20 19 18 18 17 15 12 9 6 3 3 4 4 5 5 5 6 6 5
4 6 7 6 3 2 8 9 11 16 22 26 33 36 35 41 49 48 47 45 45 45 43 41 39 37 35 33 30 27 24 22 21 20 17 15 13 9 6 4 3 3 4 5 4 5 5 5 5
8 14 12 6 11 8 15 19 13 20 18 16 23 29 36 45 49 48 47 45 45 44 44 44 43 42 40 39 36 32 29 25 23 22 19 17 13 10 6 4 3 3 4 4 4 4 3 3 2
15 17 17 13 12 14 12 20 10 10 11 17 30 31 38 43 34 44 49 48 49 48 48 47 45 43 42 40 38 34 31 27 23 22 20 16 13 9 7 5 4 4 3 4 4 4 3 2 2
17 17 13 17 11 17 10 29 16 8 20 26 23 35 42 50 44 46 52 55 54 53 53 50 47 44 43 41 38 34 31 28 27 24 21 18 14 10 8 7 5 4 3 3 4 5 4 2 3
24 11 15 13 9 12 7 19 26 6 14 10 17 27 36 38 39 46 50 54 58 57 55 53 49 46 43 42 39 37 37 35 31 25 23 18 15 12 10 8 7 5 3 3 3 4 4 4 3
20 7 8 6 11 14 18 8 29 8 10 8 11 23 33 38 44 48 55 60 61 58 58 56 50 46 47 41 39 38 36 33 29 26 23 20 17 14 12 10 7 6 5 3 3 2 3 4 5
8 4 7 8 4 10 15 11 24 5 11 8 7 22 31 36 45 52 54 50 48 51 56 56 54 49 44 42 39 38 37 35 31 29 26 21 18 15 13 11 9 8 6 4 2 1 3 4 3
5 5 2 4 6 11 11 10 23 3 1 3 9 16 24 29 36 42 45 51 53 56 57 61 56 50 41 41 35 37 34 32 31 29 26 23 19 17 14 12 10 9 6 4 1 1 2 2 3
20 14 8 10 7 6 8 9 9 5 7 12 11 9 13 19 32 37 45 50 53 55 57 60 55 47 42 36 36 38 35 33 29 28 27 22 18 15 14 12 10 9 6 3 2 3 3 1 1
5 13 28 8 1 1 5 4 2 6 13 14 15 18 17 10 19 30 37 41 47 50 56 58 49 42 37 33 36 41 38 37 33 29 26 22 20 17 15 13 12 9 7 6 4 4 3 2 1
10 4 3 4 8 11 6 4 5 5 7 10 14 14 12 6 6 19 29 35 39 44 48 49 47 47 34 34 40 43 41 38 33 32 30 27 23 20 15 14 13 10 9 7 6 6 4 3 2
2 5 3 2 3 5 2 4 4 1 4 9 13 21 23 14 4 14 23 29 35 40 43 52 52 37 38 45 41 44 42 39 36 36 32 29 26 21 17 16 14 12 11 9 8 7 5 5 4
4 5 3 5 6 3 2 4 4 2 5 9 9 20 24 22 19 11 17 22 31 41 48 43 44 46 48 40 42 44 42 41 40 38 32 31 26 21 19 16 16 14 11 11 9 8 7 7 6
Wind_Direction
286 301 289 160 46 62 266 258 269 286 283 295 239 95 103 66 156 199 157 170 170 173 176 176 182 172 171 187 182 182 181 176 173 173 172 169 167 168 172 178 192 231 300 327 337 334 332 329 324
297 270 195 150 108 254 263 253 236 240 246 100 48 34 32 159 157 148 152 169 169 174 178 176 181 173 172 180 183 183 182 179 178 178 173 170 167 169 170 172 174 293 335 334 328 322 320 318 316
270 223 192 144 161 200 229 240 247 132 27 198 104 74 129 181 167 155 158 167 173 177 182 176 179 178 181 184 182 181 181 182 179 176 173 171 168 164 162 166 221 302 311 315 317 317 319 317 317
238 179 140 132 239 240 223 247 293 311 310 237 160 83 111 188 157 166 162 171 177 181 185 180 182 185 184 182 179 180 180 179 177 175 172 168 167 166 176 200 278 310 316 316 314 318 318 321 321
207 196 194 243 260 235 249 262 263 269 239 182 162 168 165 150 165 168 171 177 183 184 189 184 190 187 184 182 181 180 179 180 178 175 169 162 170 180 201 247 287 295 301 309 318 327 324 323 322
208 126 49 247 259 262 269 277 285 258 248 177 132 142 170 184 181 176 173 177 184 190 192 191 185 188 188 187 185 182 179 178 174 174 181 188 186 192 212 242 264 285 297 312 319 321 321 321 321
160 111 227 243 273 296 260 308 281 296 167 173 156 131 175 181 186 175 172 178 183 192 192 191 185 185 188 186 185 185 185 184 187 186 183 189 192 202 211 223 245 267 288 294 315 324 326 323 320
215 127 250 229 265 279 260 299 306 301 17 150 162 170 186 186 182 173 174 179 184 192 196 192 189 186 186 185 186 189 188 187 185 186 191 194 203 207 214 227 249 276 295 327 338 335 330 323 317
207 65 254 246 187 263 291 308 320 306 149 204 194 223 256 178 174 176 180 184 189 191 196 194 191 189 192 192 190 190 191 192 193 194 195 202 209 211 212 217 225 263 308 330 335 329 322 316 313
157 205 237 200 212 267 283 266 269 208 198 245 207 212 207 175 177 181 185 186 190 191 191 192 191 193 195 195 194 194 196 198 199 200 202 201 205 208 201 213 235 273 305 320 319 313 312 311 307
207 224 236 245 257 266 269 286 272 205 236 215 204 180 181 181 183 191 194 193 188 188 192 193 193 194 195 196 195 195 198 200 200 201 207 208 208 212 209 229 248 280 302 316 327 329 326 326 323
259 250 253 266 273 269 242 282 253 201 232 249 225 212 184 188 192 196 198 196 193 192 193 193 194 194 194 198 198 199 202 203 204 202 204 209 211 211 225 244 265 287 305 335 337 340 338 333 326
233 253 266 261 272 282 293 262 249 232 243 235 213 198 196 196 198 200 201 198 197 194 195 194 195 196 196 198 199 198 200 201 201 200 200 203 206 212 230 251 263 302 324 325 337 338 343 344 339
252 280 281 281 272 277 248 268 224 249 231 209 202 200 200 200 200 200 203 202 202 197 195 194 194 196 198 199 200 200 200 200 200 199 199 198 202 214 229 245 278 302 320 332 340 352 359 351 348
266 271 286 262 272 243 230 277 232 256 209 197 200 202 202 204 205 209 208 206 203 201 196 196 194 195 198 200 201 200 201 201 200 199 198 197 202 212 223 240 281 309 319 329 353 3 358 347 346
290 253 268 236 216 265 177 256 259 243 197 204 201 203 206 208 214 212 214 211 206 205 199 197 196 197 200 203 203 202 201 202 199 196 197 201 202 206 213 238 287 299 315 344 355 345 332 328 331
219 259 255 287 209 244 196 261 264 226 205 204 205 205 210 213 215 216 216 214 209 208 201 200 200 202 200 200 203 206 208 203 201 198 199 200 201 200 210 239 278 295 322 331 328 332 334 335 334
245 253 263 244 287 225 278 269 281 256 207 215 210 213 210 211 220 217 216 214 211 210 205 204 203 203 201 200 202 206 207 202 199 199 197 197 199 198 205 225 255 286 304 307 328 343 340 338 338
259 257 255 278 285 307 276 276 265 275 207 224 221 214 214 215 226 215 217 214 211 210 205 204 201 201 202 200 200 204 205 201 198 195 193 192 193 195 199 206 233 262 285 307 333 337 342 337 349
234 250 262 273 266 275 278 275 244 248 258 219 220 218 218 222 213 212 213 213 214 209 205 202 202 202 204 207 206 207 203 200 200 195 192 190 192 194 196 202 217 244 279 306 318 329 341 7 54
239 239 252 260 283 275 305 286 275 243 243 247 241 234 225 217 208 207 209 213 213 210 206 203 202 203 206 206 205 201 200 198 195 194 193 190 191 193 198 204 212 223 243 287 316 331 341 21 60
255 229 246 263 265 268 170 284 272 246 232 222 228 225 223 215 208 208 209 209 213 213 209 203 200 203 204 207 206 205 202 200 203 197 192 191 190 194 199 204 208 213 238 274 308 316 331 18 48
253 203 241 249 267 287 258 254 276 192 237 234 238 235 233 220 210 209 215 219 216 210 208 203 203 203 205 206 209 205 205 205 199 194 195 193 192 192 200 202 206 217 233 247 275 314 343 10 20
232 199 244 249 219 244 237 213 273 193 229 228 231 240 241 227 216 220 218 206 202 203 206 202 203 203 203 204 204 206 207 201 196 197 196 197 194 196 195 198 206 218 222 224 250 343 353 351 358
188 130 237 247 195 245 161 196 237 325 356 195 265 259 239 238 220 210 200 202 201 204 202 202 199 200 197 206 206 212 208 204 200 202 202 200 200 197 197 200 205 216 218 216 223 326 336 323 357
219 189 204 225 212 239 172 230 246 27 39 32 18 344 302 256 232 208 203 201 199 199 198 200 197 196 198 200 209 210 203 206 207 209 210 207 206 200 202 202 205 211 212 217 226 252 236 231 347
203 206 229 268 231 20 238 284 333 38 40 27 23 28 17 10 212 197 195 196 196 189 193 198 193 195 197 207 215 210 208 207 208 211 211 212 206 207 204 206 205 207 207 215 226 235 232 246 221
205 150 122 197 212 232 232 231 219 6 23 13 30 20 31 40 167 189 192 195 195 193 191 195 197 198 205 215 213 211 209 207 212 211 209 210 212 211 210 208 209 204 203 211 223 226 228 217 205
110 179 103 119 207 206 201 237 132 93 4 37 17 20 20 13 242 210 203 200 199 195 198 198 197 195 217 210 207 209 208 208 210 211 210 211 212 211 211 208 211 203 203 214 218 217 214 208 189
79 130 166 233 186 229 186 216 148 131 44 39 30 360 353 3 5 228 201 196 205 201 200 197 202 217 209 207 211 208 207 207 206 208 208 210 209 211 212 209 211 202 204 213 211 207 201 202 185